owner,sensor,date,latitude,longitude,sea_surface_height_above_sea_level,qcFlag 
TCOON,ioos:station:TCOON:068:1,2014-11-01T00:18:00Z,27.2970,-97.4049,4.307,1111122 
TCOON,ioos:station:TCOON:068:1,2014-11-01T01:18:00Z,27.2970,-97.4049,4.303,1111122 
TCOON,ioos:station:TCOON:068:1,2014-11-01T02:18:00Z,27.2970,-97.4049,4.303,1111122 
TCOON,ioos:station:TCOON:068:1,2014-11-01T03:18:00Z,27.2970,-97.4049,4.314,1111122 
TCOON,ioos:station:TCOON:068:1,2014-11-01T04:18:00Z,27.2970,-97.4049,4.3,1111122 
TCOON,ioos:station:TCOON:068:1,2014-11-01T05:12:00Z,27.2970,-97.4049,4.29,1111122 
TCOON,ioos:station:TCOON:068:1,2014-11-01T06:54:00Z,27.2970,-97.4049,4.285,1111122 
TCOON,ioos:station:TCOON:068:1,2014-11-01T07:12:00Z,27.2970,-97.4049,4.287,1111122 
TCOON,ioos:station:TCOON:068:1,2014-11-01T08:12:00Z,27.2970,-97.4049,4.295,1111122 
TCOON,ioos:station:TCOON:068:1,2014-11-01T09:12:00Z,27.2970,-97.4049,4.309,1111122 
TCOON,ioos:station:TCOON:068:1,2014-11-01T10:12:00Z,27.2970,-97.4049,4.315,1111122 
TCOON,ioos:station:TCOON:068:1,2014-11-01T11:12:00Z,27.2970,-97.4049,4.32,1111122 
TCOON,ioos:station:TCOON:068:1,2014-11-01T12:12:00Z,27.2970,-97.4049,4.318,1111122 
TCOON,ioos:station:TCOON:068:1,2014-11-01T13:12:00Z,27.2970,-97.4049,4.315,1111122 
TCOON,ioos:station:TCOON:068:1,2014-11-01T14:12:00Z,27.2970,-97.4049,4.313,1111122 
TCOON,ioos:station:TCOON:068:1,2014-11-01T15:12:00Z,27.2970,-97.4049,4.32,1111122 
TCOON,ioos:station:TCOON:068:1,2014-11-01T16:12:00Z,27.2970,-97.4049,4.328,1111122 
TCOON,ioos:station:TCOON:068:1,2014-11-01T17:12:00Z,27.2970,-97.4049,4.324,1111122 
TCOON,ioos:station:TCOON:068:1,2014-11-01T18:12:00Z,27.2970,-97.4049,4.311,1111122 
TCOON,ioos:station:TCOON:068:1,2014-11-01T19:12:00Z,27.2970,-97.4049,4.311,1111122 
TCOON,ioos:station:TCOON:068:1,2014-11-01T20:18:00Z,27.2970,-97.4049,4.323,1111122 
TCOON,ioos:station:TCOON:068:1,2014-11-01T21:18:00Z,27.2970,-97.4049,4.329,1111122 
TCOON,ioos:station:TCOON:068:1,2014-11-01T22:12:00Z,27.2970,-97.4049,4.331,1111122 
TCOON,ioos:station:TCOON:068:1,2014-11-01T23:12:00Z,27.2970,-97.4049,4.34,1111122 
TCOON,ioos:station:TCOON:068:1,2014-11-02T00:12:00Z,27.2970,-97.4049,4.341,1111122 
TCOON,ioos:station:TCOON:068:1,2014-11-02T01:18:00Z,27.2970,-97.4049,4.34,1111122 
TCOON,ioos:station:TCOON:068:1,2014-11-02T02:12:00Z,27.2970,-97.4049,4.331,1111122 
TCOON,ioos:station:TCOON:068:1,2014-11-02T03:12:00Z,27.2970,-97.4049,4.326,1111122 
TCOON,ioos:station:TCOON:068:1,2014-11-02T04:18:00Z,27.2970,-97.4049,4.326,1111122 
TCOON,ioos:station:TCOON:068:1,2014-11-02T05:12:00Z,27.2970,-97.4049,4.33,1111122 
TCOON,ioos:station:TCOON:068:1,2014-11-02T06:30:00Z,27.2970,-97.4049,4.333,1111122 
TCOON,ioos:station:TCOON:068:1,2014-11-02T07:12:00Z,27.2970,-97.4049,4.332,1111122 
TCOON,ioos:station:TCOON:068:1,2014-11-02T08:12:00Z,27.2970,-97.4049,4.33,1111122 
TCOON,ioos:station:TCOON:068:1,2014-11-02T09:12:00Z,27.2970,-97.4049,4.327,1111122 
TCOON,ioos:station:TCOON:068:1,2014-11-02T10:12:00Z,27.2970,-97.4049,4.327,1111122 
TCOON,ioos:station:TCOON:068:1,2014-11-02T11:12:00Z,27.2970,-97.4049,4.321,1111122 
TCOON,ioos:station:TCOON:068:1,2014-11-02T12:12:00Z,27.2970,-97.4049,4.323,1111122 
TCOON,ioos:station:TCOON:068:1,2014-11-02T13:12:00Z,27.2970,-97.4049,4.327,1111122 
TCOON,ioos:station:TCOON:068:1,2014-11-02T14:12:00Z,27.2970,-97.4049,4.333,1111122 
TCOON,ioos:station:TCOON:068:1,2014-11-02T15:12:00Z,27.2970,-97.4049,4.33,1111122 
TCOON,ioos:station:TCOON:068:1,2014-11-02T16:12:00Z,27.2970,-97.4049,4.322,1111122 
TCOON,ioos:station:TCOON:068:1,2014-11-02T17:12:00Z,27.2970,-97.4049,4.317,1111122 
TCOON,ioos:station:TCOON:068:1,2014-11-02T18:12:00Z,27.2970,-97.4049,4.313,1111122 
TCOON,ioos:station:TCOON:068:1,2014-11-02T19:12:00Z,27.2970,-97.4049,4.321,1111122 
TCOON,ioos:station:TCOON:068:1,2014-11-02T20:12:00Z,27.2970,-97.4049,4.321,1111122 
TCOON,ioos:station:TCOON:068:1,2014-11-02T21:18:00Z,27.2970,-97.4049,4.321,1111122 
TCOON,ioos:station:TCOON:068:1,2014-11-02T22:12:00Z,27.2970,-97.4049,4.321,1111122 
TCOON,ioos:station:TCOON:068:1,2014-11-02T23:12:00Z,27.2970,-97.4049,4.317,1111122 
TCOON,ioos:station:TCOON:068:1,2014-11-03T00:12:00Z,27.2970,-97.4049,4.321,1111122 
TCOON,ioos:station:TCOON:068:1,2014-11-03T01:18:00Z,27.2970,-97.4049,4.33,1111122 
TCOON,ioos:station:TCOON:068:1,2014-11-03T02:18:00Z,27.2970,-97.4049,4.324,1111122 
TCOON,ioos:station:TCOON:068:1,2014-11-03T03:12:00Z,27.2970,-97.4049,4.316,1111122 
TCOON,ioos:station:TCOON:068:1,2014-11-03T04:18:00Z,27.2970,-97.4049,4.321,1111122 
TCOON,ioos:station:TCOON:068:1,2014-11-03T05:12:00Z,27.2970,-97.4049,4.326,1111122 
TCOON,ioos:station:TCOON:068:1,2014-11-03T06:18:00Z,27.2970,-97.4049,4.327,1111122 
TCOON,ioos:station:TCOON:068:1,2014-11-03T07:12:00Z,27.2970,-97.4049,4.326,1111122 
TCOON,ioos:station:TCOON:068:1,2014-11-03T08:12:00Z,27.2970,-97.4049,4.322,1111122 
TCOON,ioos:station:TCOON:068:1,2014-11-03T09:12:00Z,27.2970,-97.4049,4.319,1111122 
TCOON,ioos:station:TCOON:068:1,2014-11-03T10:12:00Z,27.2970,-97.4049,4.318,1111122 
TCOON,ioos:station:TCOON:068:1,2014-11-03T11:30:00Z,27.2970,-97.4049,4.321,1111122 
TCOON,ioos:station:TCOON:068:1,2014-11-03T12:12:00Z,27.2970,-97.4049,4.325,1111122 
TCOON,ioos:station:TCOON:068:1,2014-11-03T13:18:00Z,27.2970,-97.4049,4.329,1111122 
TCOON,ioos:station:TCOON:068:1,2014-11-03T14:12:00Z,27.2970,-97.4049,4.327,1111122 
TCOON,ioos:station:TCOON:068:1,2014-11-03T15:12:00Z,27.2970,-97.4049,4.317,1111122 
TCOON,ioos:station:TCOON:068:1,2014-11-03T16:12:00Z,27.2970,-97.4049,4.307,1111122 
TCOON,ioos:station:TCOON:068:1,2014-11-03T17:12:00Z,27.2970,-97.4049,4.305,1111122 
TCOON,ioos:station:TCOON:068:1,2014-11-03T18:12:00Z,27.2970,-97.4049,4.286,1111122 
TCOON,ioos:station:TCOON:068:1,2014-11-03T19:12:00Z,27.2970,-97.4049,4.272,1111122 
TCOON,ioos:station:TCOON:068:1,2014-11-03T20:12:00Z,27.2970,-97.4049,4.278,1111122 
TCOON,ioos:station:TCOON:068:1,2014-11-03T21:18:00Z,27.2970,-97.4049,4.278,1111122 
TCOON,ioos:station:TCOON:068:1,2014-11-03T22:54:00Z,27.2970,-97.4049,4.281,1111122 
TCOON,ioos:station:TCOON:068:1,2014-11-03T23:12:00Z,27.2970,-97.4049,4.285,1111122 
TCOON,ioos:station:TCOON:068:1,2014-11-04T00:12:00Z,27.2970,-97.4049,4.293,1111122 
TCOON,ioos:station:TCOON:068:1,2014-11-04T01:12:00Z,27.2970,-97.4049,4.295,1111122 
TCOON,ioos:station:TCOON:068:1,2014-11-04T02:12:00Z,27.2970,-97.4049,4.301,1111122 
TCOON,ioos:station:TCOON:068:1,2014-11-04T03:12:00Z,27.2970,-97.4049,4.293,1111122 
TCOON,ioos:station:TCOON:068:1,2014-11-04T04:12:00Z,27.2970,-97.4049,4.283,1111122 
TCOON,ioos:station:TCOON:068:1,2014-11-04T05:12:00Z,27.2970,-97.4049,4.28,1111122 
TCOON,ioos:station:TCOON:068:1,2014-11-04T06:18:00Z,27.2970,-97.4049,4.291,1111122 
TCOON,ioos:station:TCOON:068:1,2014-11-04T07:18:00Z,27.2970,-97.4049,4.292,1111122 
TCOON,ioos:station:TCOON:068:1,2014-11-04T08:18:00Z,27.2970,-97.4049,4.288,1111122 
TCOON,ioos:station:TCOON:068:1,2014-11-04T09:12:00Z,27.2970,-97.4049,4.28,1111122 
TCOON,ioos:station:TCOON:068:1,2014-11-04T10:12:00Z,27.2970,-97.4049,4.286,1111122 
TCOON,ioos:station:TCOON:068:1,2014-11-04T11:12:00Z,27.2970,-97.4049,4.294,1111122 
TCOON,ioos:station:TCOON:068:1,2014-11-04T12:12:00Z,27.2970,-97.4049,4.285,1111122 
TCOON,ioos:station:TCOON:068:1,2014-11-04T13:12:00Z,27.2970,-97.4049,4.278,1111122 
TCOON,ioos:station:TCOON:068:1,2014-11-04T14:12:00Z,27.2970,-97.4049,4.28,1111122 
TCOON,ioos:station:TCOON:068:1,2014-11-04T15:12:00Z,27.2970,-97.4049,4.287,1111122 
TCOON,ioos:station:TCOON:068:1,2014-11-04T16:36:00Z,27.2970,-97.4049,4.263,1111122 
TCOON,ioos:station:TCOON:068:1,2014-11-04T17:18:00Z,27.2970,-97.4049,4.249,1111122 
TCOON,ioos:station:TCOON:068:1,2014-11-04T18:18:00Z,27.2970,-97.4049,4.257,1111122 
TCOON,ioos:station:TCOON:068:1,2014-11-04T19:18:00Z,27.2970,-97.4049,4.252,1111122 
TCOON,ioos:station:TCOON:068:1,2014-11-04T20:12:00Z,27.2970,-97.4049,4.238,1111122 
TCOON,ioos:station:TCOON:068:1,2014-11-04T21:18:00Z,27.2970,-97.4049,4.235,1111122 
TCOON,ioos:station:TCOON:068:1,2014-11-04T22:42:00Z,27.2970,-97.4049,4.243,1111122 
TCOON,ioos:station:TCOON:068:1,2014-11-04T23:12:00Z,27.2970,-97.4049,4.249,1111122 
TCOON,ioos:station:TCOON:068:1,2014-11-05T00:18:00Z,27.2970,-97.4049,4.246,1111122 
TCOON,ioos:station:TCOON:068:1,2014-11-05T01:18:00Z,27.2970,-97.4049,4.274,1111122 
TCOON,ioos:station:TCOON:068:1,2014-11-05T02:12:00Z,27.2970,-97.4049,4.279,1111122 
TCOON,ioos:station:TCOON:068:1,2014-11-05T03:12:00Z,27.2970,-97.4049,4.276,1111122 
TCOON,ioos:station:TCOON:068:1,2014-11-05T04:24:00Z,27.2970,-97.4049,4.272,1111122 
TCOON,ioos:station:TCOON:068:1,2014-11-05T05:12:00Z,27.2970,-97.4049,4.27,1111122 
TCOON,ioos:station:TCOON:068:1,2014-11-05T06:24:00Z,27.2970,-97.4049,4.263,1111122 
TCOON,ioos:station:TCOON:068:1,2014-11-05T07:12:00Z,27.2970,-97.4049,4.281,1111122 
TCOON,ioos:station:TCOON:068:1,2014-11-05T08:12:00Z,27.2970,-97.4049,4.258,1111122 
TCOON,ioos:station:TCOON:068:1,2014-11-05T09:12:00Z,27.2970,-97.4049,4.22,1111122 
TCOON,ioos:station:TCOON:068:1,2014-11-05T10:12:00Z,27.2970,-97.4049,4.252,1111122 
TCOON,ioos:station:TCOON:068:1,2014-11-05T11:18:00Z,27.2970,-97.4049,4.279,1111122 
TCOON,ioos:station:TCOON:068:1,2014-11-05T12:12:00Z,27.2970,-97.4049,4.285,1111122 
TCOON,ioos:station:TCOON:068:1,2014-11-05T13:12:00Z,27.2970,-97.4049,4.28,1111122 
TCOON,ioos:station:TCOON:068:1,2014-11-05T14:12:00Z,27.2970,-97.4049,4.283,1111122 
TCOON,ioos:station:TCOON:068:1,2014-11-05T15:12:00Z,27.2970,-97.4049,4.276,1111122 
TCOON,ioos:station:TCOON:068:1,2014-11-05T16:18:00Z,27.2970,-97.4049,4.276,1111122 
TCOON,ioos:station:TCOON:068:1,2014-11-05T17:36:00Z,27.2970,-97.4049,4.288,1111122 
TCOON,ioos:station:TCOON:068:1,2014-11-05T18:18:00Z,27.2970,-97.4049,4.282,1111122 
TCOON,ioos:station:TCOON:068:1,2014-11-05T19:12:00Z,27.2970,-97.4049,4.277,1111122 
TCOON,ioos:station:TCOON:068:1,2014-11-05T20:18:00Z,27.2970,-97.4049,4.281,1111122 
TCOON,ioos:station:TCOON:068:1,2014-11-05T21:12:00Z,27.2970,-97.4049,4.268,1111122 
TCOON,ioos:station:TCOON:068:1,2014-11-05T22:24:00Z,27.2970,-97.4049,4.248,1111122 
TCOON,ioos:station:TCOON:068:1,2014-11-05T23:12:00Z,27.2970,-97.4049,4.254,1111122 
TCOON,ioos:station:TCOON:068:1,2014-11-06T00:24:00Z,27.2970,-97.4049,4.317,1111122 
TCOON,ioos:station:TCOON:068:1,2014-11-06T01:24:00Z,27.2970,-97.4049,4.304,1111122 
TCOON,ioos:station:TCOON:068:1,2014-11-06T02:18:00Z,27.2970,-97.4049,4.317,1111122 
TCOON,ioos:station:TCOON:068:1,2014-11-06T03:12:00Z,27.2970,-97.4049,4.299,1111122 
TCOON,ioos:station:TCOON:068:1,2014-11-06T04:18:00Z,27.2970,-97.4049,4.294,1111122 
TCOON,ioos:station:TCOON:068:1,2014-11-06T05:12:00Z,27.2970,-97.4049,4.293,1111122 
TCOON,ioos:station:TCOON:068:1,2014-11-06T06:24:00Z,27.2970,-97.4049,4.317,1111122 
TCOON,ioos:station:TCOON:068:1,2014-11-06T07:12:00Z,27.2970,-97.4049,4.31,1111122 
TCOON,ioos:station:TCOON:068:1,2014-11-06T08:24:00Z,27.2970,-97.4049,4.325,1111122 
TCOON,ioos:station:TCOON:068:1,2014-11-06T09:12:00Z,27.2970,-97.4049,4.314,1111122 
TCOON,ioos:station:TCOON:068:1,2014-11-06T10:12:00Z,27.2970,-97.4049,4.31,1111122 
TCOON,ioos:station:TCOON:068:1,2014-11-06T11:12:00Z,27.2970,-97.4049,4.302,1111122 
TCOON,ioos:station:TCOON:068:1,2014-11-06T12:12:00Z,27.2970,-97.4049,4.292,1111122 
TCOON,ioos:station:TCOON:068:1,2014-11-06T13:18:00Z,27.2970,-97.4049,4.303,1111122 
TCOON,ioos:station:TCOON:068:1,2014-11-06T14:12:00Z,27.2970,-97.4049,4.319,1111122 
TCOON,ioos:station:TCOON:068:1,2014-11-06T15:12:00Z,27.2970,-97.4049,4.337,1111122 
TCOON,ioos:station:TCOON:068:1,2014-11-06T16:18:00Z,27.2970,-97.4049,4.356,1111122 
TCOON,ioos:station:TCOON:068:1,2014-11-06T17:12:00Z,27.2970,-97.4049,4.368,1111122 
TCOON,ioos:station:TCOON:068:1,2014-11-06T18:12:00Z,27.2970,-97.4049,4.363,1111122 
TCOON,ioos:station:TCOON:068:1,2014-11-06T19:18:00Z,27.2970,-97.4049,4.351,1111122 
TCOON,ioos:station:TCOON:068:1,2014-11-06T20:12:00Z,27.2970,-97.4049,4.339,1111122 
TCOON,ioos:station:TCOON:068:1,2014-11-06T21:12:00Z,27.2970,-97.4049,4.332,1111122 
TCOON,ioos:station:TCOON:068:1,2014-11-06T22:36:00Z,27.2970,-97.4049,4.335,1111122 
TCOON,ioos:station:TCOON:068:1,2014-11-06T23:12:00Z,27.2970,-97.4049,4.336,1111122 
TCOON,ioos:station:TCOON:068:1,2014-11-07T00:12:00Z,27.2970,-97.4049,4.352,1111122 
TCOON,ioos:station:TCOON:068:1,2014-11-07T01:18:00Z,27.2970,-97.4049,4.352,1111122 
TCOON,ioos:station:TCOON:068:1,2014-11-07T02:12:00Z,27.2970,-97.4049,4.355,1111122 
TCOON,ioos:station:TCOON:068:1,2014-11-07T03:12:00Z,27.2970,-97.4049,4.36,1111122 
TCOON,ioos:station:TCOON:068:1,2014-11-07T04:12:00Z,27.2970,-97.4049,4.351,1111122 
TCOON,ioos:station:TCOON:068:1,2014-11-07T05:12:00Z,27.2970,-97.4049,4.364,1111122 
TCOON,ioos:station:TCOON:068:1,2014-11-07T06:18:00Z,27.2970,-97.4049,4.354,1111122 
TCOON,ioos:station:TCOON:068:1,2014-11-07T07:12:00Z,27.2970,-97.4049,4.357,1111122 
TCOON,ioos:station:TCOON:068:1,2014-11-07T08:12:00Z,27.2970,-97.4049,4.382,1111122 
TCOON,ioos:station:TCOON:068:1,2014-11-07T09:12:00Z,27.2970,-97.4049,4.395,1111122 
TCOON,ioos:station:TCOON:068:1,2014-11-07T10:12:00Z,27.2970,-97.4049,4.384,1111122 
TCOON,ioos:station:TCOON:068:1,2014-11-07T11:12:00Z,27.2970,-97.4049,4.382,1111122 
TCOON,ioos:station:TCOON:068:1,2014-11-07T12:12:00Z,27.2970,-97.4049,4.399,1111122 
TCOON,ioos:station:TCOON:068:1,2014-11-07T13:12:00Z,27.2970,-97.4049,4.405,1111122 
TCOON,ioos:station:TCOON:068:1,2014-11-07T14:12:00Z,27.2970,-97.4049,4.402,1111122 
TCOON,ioos:station:TCOON:068:1,2014-11-07T15:18:00Z,27.2970,-97.4049,4.402,1111122 
TCOON,ioos:station:TCOON:068:1,2014-11-07T16:12:00Z,27.2970,-97.4049,4.402,1111122 
TCOON,ioos:station:TCOON:068:1,2014-11-07T17:12:00Z,27.2970,-97.4049,4.396,1111122 
TCOON,ioos:station:TCOON:068:1,2014-11-07T18:18:00Z,27.2970,-97.4049,4.412,1111122 
TCOON,ioos:station:TCOON:068:1,2014-11-07T19:12:00Z,27.2970,-97.4049,4.406,1111122 
TCOON,ioos:station:TCOON:068:1,2014-11-07T20:12:00Z,27.2970,-97.4049,4.41,1111122 
TCOON,ioos:station:TCOON:068:1,2014-11-07T21:18:00Z,27.2970,-97.4049,4.41,1111122 
TCOON,ioos:station:TCOON:068:1,2014-11-07T22:24:00Z,27.2970,-97.4049,4.411,1111122 
TCOON,ioos:station:TCOON:068:1,2014-11-07T23:12:00Z,27.2970,-97.4049,4.408,1111122 
TCOON,ioos:station:TCOON:068:1,2014-11-08T00:18:00Z,27.2970,-97.4049,4.411,1111122 
TCOON,ioos:station:TCOON:068:1,2014-11-08T01:18:00Z,27.2970,-97.4049,4.406,1111122 
TCOON,ioos:station:TCOON:068:1,2014-11-08T02:18:00Z,27.2970,-97.4049,4.41,1111122 
TCOON,ioos:station:TCOON:068:1,2014-11-08T03:12:00Z,27.2970,-97.4049,4.404,1111122 
TCOON,ioos:station:TCOON:068:1,2014-11-08T04:18:00Z,27.2970,-97.4049,4.41,1111122 
TCOON,ioos:station:TCOON:068:1,2014-11-08T05:12:00Z,27.2970,-97.4049,4.404,1111122 
TCOON,ioos:station:TCOON:068:1,2014-11-08T06:18:00Z,27.2970,-97.4049,4.406,1111122 
TCOON,ioos:station:TCOON:068:1,2014-11-08T07:12:00Z,27.2970,-97.4049,4.409,1111122 
TCOON,ioos:station:TCOON:068:1,2014-11-08T08:12:00Z,27.2970,-97.4049,4.41,1111122 
TCOON,ioos:station:TCOON:068:1,2014-11-08T09:12:00Z,27.2970,-97.4049,4.408,1111122 
TCOON,ioos:station:TCOON:068:1,2014-11-08T10:12:00Z,27.2970,-97.4049,4.403,1111122 
TCOON,ioos:station:TCOON:068:1,2014-11-08T11:18:00Z,27.2970,-97.4049,4.418,1111122 
TCOON,ioos:station:TCOON:068:1,2014-11-08T12:12:00Z,27.2970,-97.4049,4.412,1111122 
TCOON,ioos:station:TCOON:068:1,2014-11-08T13:12:00Z,27.2970,-97.4049,4.411,1111122 
TCOON,ioos:station:TCOON:068:1,2014-11-08T14:12:00Z,27.2970,-97.4049,4.413,1111122 
TCOON,ioos:station:TCOON:068:1,2014-11-08T15:12:00Z,27.2970,-97.4049,4.417,1111122 
TCOON,ioos:station:TCOON:068:1,2014-11-08T16:12:00Z,27.2970,-97.4049,4.415,1111122 
TCOON,ioos:station:TCOON:068:1,2014-11-08T17:18:00Z,27.2970,-97.4049,4.41,1111122 
TCOON,ioos:station:TCOON:068:1,2014-11-08T18:18:00Z,27.2970,-97.4049,4.414,1111122 
TCOON,ioos:station:TCOON:068:1,2014-11-08T19:12:00Z,27.2970,-97.4049,4.421,1111122 
TCOON,ioos:station:TCOON:068:1,2014-11-08T20:12:00Z,27.2970,-97.4049,4.417,1111122 
TCOON,ioos:station:TCOON:068:1,2014-11-08T21:12:00Z,27.2970,-97.4049,4.421,1111122 
TCOON,ioos:station:TCOON:068:1,2014-11-08T22:12:00Z,27.2970,-97.4049,4.425,1111122 
TCOON,ioos:station:TCOON:068:1,2014-11-08T23:12:00Z,27.2970,-97.4049,4.416,1111122 
TCOON,ioos:station:TCOON:068:1,2014-11-09T00:12:00Z,27.2970,-97.4049,4.411,1111122 
TCOON,ioos:station:TCOON:068:1,2014-11-09T01:12:00Z,27.2970,-97.4049,4.408,1111122 
TCOON,ioos:station:TCOON:068:1,2014-11-09T02:12:00Z,27.2970,-97.4049,4.403,1111122 
TCOON,ioos:station:TCOON:068:1,2014-11-09T03:12:00Z,27.2970,-97.4049,4.405,1111122 
TCOON,ioos:station:TCOON:068:1,2014-11-09T04:18:00Z,27.2970,-97.4049,4.404,1111122 
TCOON,ioos:station:TCOON:068:1,2014-11-09T05:12:00Z,27.2970,-97.4049,4.409,1111122 
TCOON,ioos:station:TCOON:068:1,2014-11-09T06:12:00Z,27.2970,-97.4049,4.401,1111122 
TCOON,ioos:station:TCOON:068:1,2014-11-09T07:12:00Z,27.2970,-97.4049,4.403,1111122 
TCOON,ioos:station:TCOON:068:1,2014-11-09T08:12:00Z,27.2970,-97.4049,4.385,1111122 
TCOON,ioos:station:TCOON:068:1,2014-11-09T09:12:00Z,27.2970,-97.4049,4.387,1111122 
TCOON,ioos:station:TCOON:068:1,2014-11-09T10:12:00Z,27.2970,-97.4049,4.399,1111122 
TCOON,ioos:station:TCOON:068:1,2014-11-09T11:12:00Z,27.2970,-97.4049,4.405,1111122 
TCOON,ioos:station:TCOON:068:1,2014-11-09T12:12:00Z,27.2970,-97.4049,4.408,1111122 
TCOON,ioos:station:TCOON:068:1,2014-11-09T13:12:00Z,27.2970,-97.4049,4.397,1111122 
TCOON,ioos:station:TCOON:068:1,2014-11-09T14:12:00Z,27.2970,-97.4049,4.393,1111122 
TCOON,ioos:station:TCOON:068:1,2014-11-09T15:12:00Z,27.2970,-97.4049,4.397,1111122 
TCOON,ioos:station:TCOON:068:1,2014-11-09T16:18:00Z,27.2970,-97.4049,4.401,1111122 
TCOON,ioos:station:TCOON:068:1,2014-11-09T17:12:00Z,27.2970,-97.4049,4.399,1111122 
TCOON,ioos:station:TCOON:068:1,2014-11-09T18:12:00Z,27.2970,-97.4049,4.397,1111122 
TCOON,ioos:station:TCOON:068:1,2014-11-09T19:12:00Z,27.2970,-97.4049,4.398,1111122 
TCOON,ioos:station:TCOON:068:1,2014-11-09T20:12:00Z,27.2970,-97.4049,4.401,1111122 
TCOON,ioos:station:TCOON:068:1,2014-11-09T21:12:00Z,27.2970,-97.4049,4.4,1111122 
TCOON,ioos:station:TCOON:068:1,2014-11-09T22:12:00Z,27.2970,-97.4049,4.392,1111122 
TCOON,ioos:station:TCOON:068:1,2014-11-09T23:12:00Z,27.2970,-97.4049,4.39,1111122 
TCOON,ioos:station:TCOON:068:1,2014-11-10T00:12:00Z,27.2970,-97.4049,4.379,1111122 
TCOON,ioos:station:TCOON:068:1,2014-11-10T01:12:00Z,27.2970,-97.4049,4.37,1111122 
TCOON,ioos:station:TCOON:068:1,2014-11-10T02:12:00Z,27.2970,-97.4049,4.366,1111122 
TCOON,ioos:station:TCOON:068:1,2014-11-10T03:12:00Z,27.2970,-97.4049,4.368,1111122 
TCOON,ioos:station:TCOON:068:1,2014-11-10T04:12:00Z,27.2970,-97.4049,4.378,1111122 
TCOON,ioos:station:TCOON:068:1,2014-11-10T05:12:00Z,27.2970,-97.4049,4.382,1111122 
TCOON,ioos:station:TCOON:068:1,2014-11-10T06:12:00Z,27.2970,-97.4049,4.382,1111122 
TCOON,ioos:station:TCOON:068:1,2014-11-10T07:12:00Z,27.2970,-97.4049,4.378,1111122 
TCOON,ioos:station:TCOON:068:1,2014-11-10T08:12:00Z,27.2970,-97.4049,4.373,1111122 
TCOON,ioos:station:TCOON:068:1,2014-11-10T09:12:00Z,27.2970,-97.4049,4.368,1111122 
TCOON,ioos:station:TCOON:068:1,2014-11-10T10:12:00Z,27.2970,-97.4049,4.362,1111122 
TCOON,ioos:station:TCOON:068:1,2014-11-10T11:12:00Z,27.2970,-97.4049,4.361,1111122 
TCOON,ioos:station:TCOON:068:1,2014-11-10T12:12:00Z,27.2970,-97.4049,4.362,1111122 
TCOON,ioos:station:TCOON:068:1,2014-11-10T13:12:00Z,27.2970,-97.4049,4.36,1111122 
TCOON,ioos:station:TCOON:068:1,2014-11-10T14:12:00Z,27.2970,-97.4049,4.363,1111122 
TCOON,ioos:station:TCOON:068:1,2014-11-10T15:30:00Z,27.2970,-97.4049,4.364,1111122 
TCOON,ioos:station:TCOON:068:1,2014-11-10T16:24:00Z,27.2970,-97.4049,4.365,1111122 
TCOON,ioos:station:TCOON:068:1,2014-11-10T17:12:00Z,27.2970,-97.4049,4.362,1111122 
TCOON,ioos:station:TCOON:068:1,2014-11-10T18:18:00Z,27.2970,-97.4049,4.346,1111122 
TCOON,ioos:station:TCOON:068:1,2014-11-10T19:18:00Z,27.2970,-97.4049,4.346,1111122 
TCOON,ioos:station:TCOON:068:1,2014-11-10T20:12:00Z,27.2970,-97.4049,4.348,1111122 
TCOON,ioos:station:TCOON:068:1,2014-11-10T21:12:00Z,27.2970,-97.4049,4.338,1111122 
TCOON,ioos:station:TCOON:068:1,2014-11-10T22:18:00Z,27.2970,-97.4049,4.337,1111122 
TCOON,ioos:station:TCOON:068:1,2014-11-10T23:18:00Z,27.2970,-97.4049,4.331,1111122 
TCOON,ioos:station:TCOON:068:1,2014-11-11T00:12:00Z,27.2970,-97.4049,4.337,1111122 
TCOON,ioos:station:TCOON:068:1,2014-11-11T01:18:00Z,27.2970,-97.4049,4.344,1111122 
TCOON,ioos:station:TCOON:068:1,2014-11-11T02:12:00Z,27.2970,-97.4049,4.342,1111122 
TCOON,ioos:station:TCOON:068:1,2014-11-11T03:12:00Z,27.2970,-97.4049,4.347,1111122 
TCOON,ioos:station:TCOON:068:1,2014-11-11T04:18:00Z,27.2970,-97.4049,4.336,1111122 
TCOON,ioos:station:TCOON:068:1,2014-11-11T05:12:00Z,27.2970,-97.4049,4.323,1111122 
TCOON,ioos:station:TCOON:068:1,2014-11-11T06:18:00Z,27.2970,-97.4049,4.327,1111122 
TCOON,ioos:station:TCOON:068:1,2014-11-11T07:12:00Z,27.2970,-97.4049,4.327,1111122 
TCOON,ioos:station:TCOON:068:1,2014-11-11T08:12:00Z,27.2970,-97.4049,4.322,1111122 
TCOON,ioos:station:TCOON:068:1,2014-11-11T09:12:00Z,27.2970,-97.4049,4.324,1111122 
TCOON,ioos:station:TCOON:068:1,2014-11-11T10:12:00Z,27.2970,-97.4049,4.321,1111122 
TCOON,ioos:station:TCOON:068:1,2014-11-11T11:12:00Z,27.2970,-97.4049,4.314,1111122 
TCOON,ioos:station:TCOON:068:1,2014-11-11T12:12:00Z,27.2970,-97.4049,4.312,1111122 
TCOON,ioos:station:TCOON:068:1,2014-11-11T13:12:00Z,27.2970,-97.4049,4.312,1111122 
TCOON,ioos:station:TCOON:068:1,2014-11-11T14:12:00Z,27.2970,-97.4049,4.316,1111122 
TCOON,ioos:station:TCOON:068:1,2014-11-11T15:12:00Z,27.2970,-97.4049,4.313,1111122 
TCOON,ioos:station:TCOON:068:1,2014-11-11T16:12:00Z,27.2970,-97.4049,4.315,1111122 
TCOON,ioos:station:TCOON:068:1,2014-11-11T17:18:00Z,27.2970,-97.4049,4.305,1111122 
TCOON,ioos:station:TCOON:068:1,2014-11-11T18:12:00Z,27.2970,-97.4049,4.302,1111122 
TCOON,ioos:station:TCOON:068:1,2014-11-11T19:18:00Z,27.2970,-97.4049,4.309,1111122 
TCOON,ioos:station:TCOON:068:1,2014-11-11T20:12:00Z,27.2970,-97.4049,4.312,1111122 
TCOON,ioos:station:TCOON:068:1,2014-11-11T21:12:00Z,27.2970,-97.4049,4.306,1111122 
TCOON,ioos:station:TCOON:068:1,2014-11-11T22:48:00Z,27.2970,-97.4049,4.301,1111122 
TCOON,ioos:station:TCOON:068:1,2014-11-11T23:12:00Z,27.2970,-97.4049,4.311,1111122 
TCOON,ioos:station:TCOON:068:1,2014-11-12T00:12:00Z,27.2970,-97.4049,4.309,1111122 
TCOON,ioos:station:TCOON:068:1,2014-11-12T01:18:00Z,27.2970,-97.4049,4.312,1111122 
TCOON,ioos:station:TCOON:068:1,2014-11-12T02:12:00Z,27.2970,-97.4049,4.31,1111122 
TCOON,ioos:station:TCOON:068:1,2014-11-12T03:12:00Z,27.2970,-97.4049,4.311,1111122 
TCOON,ioos:station:TCOON:068:1,2014-11-12T23:12:00Z,27.2970,-97.4049,4.319,1111122 
TCOON,ioos:station:TCOON:068:1,2014-11-13T00:12:00Z,27.2970,-97.4049,4.323,1111122 
TCOON,ioos:station:TCOON:068:1,2014-11-13T01:12:00Z,27.2970,-97.4049,4.312,1111122 
TCOON,ioos:station:TCOON:068:1,2014-11-13T02:12:00Z,27.2970,-97.4049,4.304,1111122 
TCOON,ioos:station:TCOON:068:1,2014-11-13T03:12:00Z,27.2970,-97.4049,4.313,1111122 
TCOON,ioos:station:TCOON:068:1,2014-11-13T04:12:00Z,27.2970,-97.4049,4.323,1111122 
TCOON,ioos:station:TCOON:068:1,2014-11-13T05:12:00Z,27.2970,-97.4049,4.301,1111122 
TCOON,ioos:station:TCOON:068:1,2014-11-13T06:18:00Z,27.2970,-97.4049,4.294,1111122 
TCOON,ioos:station:TCOON:068:1,2014-11-13T07:12:00Z,27.2970,-97.4049,4.306,1111122 
TCOON,ioos:station:TCOON:068:1,2014-11-13T08:12:00Z,27.2970,-97.4049,4.317,1111122 
TCOON,ioos:station:TCOON:068:1,2014-11-13T09:12:00Z,27.2970,-97.4049,4.338,1111122 
TCOON,ioos:station:TCOON:068:1,2014-11-13T10:12:00Z,27.2970,-97.4049,4.325,1111122 
TCOON,ioos:station:TCOON:068:1,2014-11-13T11:12:00Z,27.2970,-97.4049,4.324,1111122 
TCOON,ioos:station:TCOON:068:1,2014-11-13T12:12:00Z,27.2970,-97.4049,4.321,1111122 
TCOON,ioos:station:TCOON:068:1,2014-11-13T13:12:00Z,27.2970,-97.4049,4.306,1111122 
TCOON,ioos:station:TCOON:068:1,2014-11-13T14:12:00Z,27.2970,-97.4049,4.311,1111122 
TCOON,ioos:station:TCOON:068:1,2014-11-13T15:12:00Z,27.2970,-97.4049,4.322,1111122 